Flag for Germany Weather past 2 weeks in Kamp-Lintfort, North Rhine-Westphalia, Germany

Now
40 °F

Passing clouds.


Feels Like: 36 °F
Forecast: 34 / 38 °F
Wind: 6 mph from Southwest

Location: Duesseldorf

Current Time: Dec 25, 2014 at 4:04:44 AM

Latest Report: Dec 25, 2014 at 3:00 AM


Visibility: 31 mi

Pressure: 30.16 "Hg

Humidity: 80%

Dew point: 34 °F

Location of Kamp-LintfortLocation

Historic Weather in Kamp-Lintfort — Graph

°F

Kamp-Lintfort temperature yesterday

Maximum temperature yesterday: 49 °F (at 12:00 AM)
Minimum temperature yesterday: 42 °F (at 11:00 PM)
Average temperature yesterday: 47 °F

Past Weeks' High & Low Weather Summary

 TemperatureHumidityPressure
High55 °F (Dec 18, 7:00 PM)100% (Dec 14, 6:00 AM)30.41 "Hg (Dec 14, 6:00 AM)
Low30 °F (Dec 14, 6:00 AM)68% (Dec 10, 3:00 PM)29.41 "Hg (Dec 12, 1:00 PM)
Average44 °F86%29.96 "Hg
* Reported Dec 10 3:00 AM — Dec 25 3:00 AM, Kamp-Lintfort, Weather by CustomWeather, © 2014

Note: Actual official high and low records may vary slightly from our data, if they occured in-between our weather recording intervals... More about our weather records

Advertising

Kamp-Lintfort weather history for previous 24 hours

 ConditionsComfort  
Time TempWeatherWind HumidityBarometerVisibility
3:00 AM
Dec 25
40 °FPassing clouds.6 mph80%30.16 "Hg31 mi
2:00 AM40 °FPassing clouds.5 mph80%30.15 "Hg28 mi
1:00 AM42 °FOvercast.6 mph81%30.14 "Hg25 mi
12:00 AM41 °FPassing clouds.5 mph80%30.14 "Hg28 mi
11:00 PM
Dec 24
42 °FPassing clouds.5 mph79%30.12 "Hg25 mi
9:00 PM44 °FOvercast.5 mph88%30.09 "Hg16 mi
8:00 PM44 °FLow clouds.5 mph90%30.06 "Hg12 mi
7:00 PM44 °FLight rain. Low clouds.3 mph93%30.03 "Hg9 mi
6:00 PM44 °FLight rain. Low clouds.3 mph93%30.02 "Hg7 mi
5:00 PM45 °FRain. Low clouds.6 mph93%30.00 "Hg4 mi
3:00 PM48 °FRain. Low clouds.9 mph94%29.96 "Hg4 mi
2:00 PM48 °FRain. Low clouds.10 mph94%29.96 "Hg3 mi
1:00 PM47 °FRain. Low clouds.12 mph95%29.97 "Hg3 mi
12:00 PM47 °FRain. Low clouds.10 mph89%29.98 "Hg6 mi
11:00 AM47 °FLight rain. Low clouds.10 mph88%29.99 "Hg12 mi
9:00 AM47 °FLight rain. Overcast.10 mph80%29.99 "Hg19 mi
8:00 AM48 °FOvercast.9 mph76%29.98 "Hg19 mi
7:00 AM48 °FOvercast.9 mph75%29.98 "Hg31 mi
6:00 AM48 °FOvercast.9 mph73%29.98 "Hg31 mi
5:00 AM48 °FCool.9 mph72%30.00 "HgN/A
4:00 AM48 °FOvercast.10 mph72%30.01 "Hg31 mi
Weather by CustomWeather, © 2014

See weather overviewHow to use our weather pages